Weather History for 94578 - March, 2014

Change the Weather History Date:

Monday, March 3, 2014

  Actual Average Record
Temperature  
Mean Temperature 75 °F -  
Max Temperature 81 °F 83 °F - ()
Min Temperature 69 °F 67 °F - ()
Cooling Degree Days 10    
Growing Degree Days 25 (Base 50)    
Moisture  
Dew Point 65 °F    
Average Humidity 69    
Maximum Humidity 94    
Minimum Humidity 45    
Precipitation  
Precipitation 0.08 in 0.18 in - ()
Sea Level Pressure  
Sea Level Pressure 30.11 in    
Wind  
Wind Speed 9 mph ()    
Max Wind Speed 17 mph    
Max Gust Speed 30 mph    
Visibility 8.0 miles    
Events Rain    
T = Trace of Precipitation, MM = Missing Value Source: Averaged Metar Reports

Daily Weather History Graph

Daily Weather History Graph

Search for Another Location

Airport or City:

Trip Planner

Search our weather history database for the weather conditions in past years. The results will help you decide how hot, cold, wet, or windy it might be!

Date:

Astronomy

Mar. 03, 2014 Rise Set
Actual Time 5:41 AM AEST 6:17 PM AEST
Civil Twilight 5:17 AM AEST 6:40 PM AEST
Nautical Twilight 4:49 AM AEST 7:08 PM AEST
Astronomical Twilight 4:21 AM AEST 7:36 PM AEST
Moon 7:21 AM AEST 7:26 PM AEST
Length of Visible Light 13h 23m
Length of Day
12h 36m
Waxing Crescent, 4% of the Moon is Illuminated
Mar 3
Waxing Crescent
Mar 8
First Quarter
Mar 17
Full
Mar 24
Last Quarter
Mar 31
New

Hourly Weather History & Observations

Time (AEST) Temp. Heat Index Dew Point Humidity Pressure Visibility Wind Dir Wind Speed Gust Speed Precip Events Conditions
12:00 AM 75 °F - 66 °F 67% 30.06 in 19 mi ESE 10.4 mph - -   Mostly Cloudy
12:00 AM 75.2 °F - 66.2 °F 73% 30.04 in 6.2 mi ESE 10.4 mph - N/A   Mostly Cloudy
12:30 AM 75.2 °F - 66.2 °F 73% 30.04 in 6.2 mi East 9.2 mph - N/A   Scattered Clouds
1:00 AM 75 °F - 65 °F 65% 30.06 in - East 8.1 mph - -  
1:00 AM 75.2 °F - 66.2 °F 73% 30.04 in 6.2 mi East 8.1 mph - N/A   Scattered Clouds
1:30 AM 75.2 °F - 66.2 °F 73% 30.04 in 6.2 mi East 9.2 mph - N/A   Mostly Cloudy
2:00 AM 75.2 °F - 64.4 °F 69% 30.04 in 6.2 mi ESE 9.2 mph - N/A   Scattered Clouds
2:30 AM 75.2 °F - 66.2 °F 73% 30.04 in 6.2 mi East 9.2 mph - N/A   Scattered Clouds
3:00 AM 75 °F - 65 °F 63% 30.05 in 19 mi East 9.2 mph - -   Partly Cloudy
3:00 AM 75.2 °F - 64.4 °F 69% 30.04 in 6.2 mi East 9.2 mph - N/A   Partly Cloudy
3:30 AM 75.2 °F - 64.4 °F 69% 30.04 in 6.2 mi ESE 10.4 mph - N/A   Scattered Clouds
4:00 AM 75 °F - 64 °F 61% 30.06 in - East 10.4 mph - -  
4:00 AM 75.2 °F - 64.4 °F 69% 30.04 in 6.2 mi East 10.4 mph - N/A Rain Light Rain Showers
4:30 AM 75.2 °F - 62.6 °F 65% 30.06 in 6.2 mi ESE 8.1 mph - N/A   Scattered Clouds
5:00 AM 75.2 °F - 62.6 °F 65% 30.06 in 6.2 mi ESE 9.2 mph - N/A   Partly Cloudy
5:30 AM 75.2 °F - 62.6 °F 65% 30.06 in 6.2 mi East 10.4 mph - N/A   Partly Cloudy
6:00 AM 75 °F - 63 °F 59% 30.09 in 19 mi ESE 9.2 mph - -   Partly Cloudy
6:00 AM 75.2 °F - 62.6 °F 65% 30.06 in 6.2 mi ESE 9.2 mph - N/A   Scattered Clouds
6:30 AM 77.0 °F - 62.6 °F 61% 30.09 in 6.2 mi ESE 8.1 mph - N/A   Mostly Cloudy
7:00 AM 75 °F - 65 °F 62% 30.12 in - SSE 10.4 mph - -  
7:00 AM 75.2 °F - 64.4 °F 69% 30.09 in 6.2 mi SSE 10.4 mph - N/A Rain Light Rain Showers
7:30 AM 77.0 °F - 62.6 °F 61% 30.12 in 6.2 mi SE 8.1 mph - N/A   Scattered Clouds
8:00 AM 77.0 °F - 64.4 °F 65% 30.12 in 6.2 mi ESE 8.1 mph - N/A Rain Light Rain Showers
8:30 AM 78.8 °F - 64.4 °F 61% 30.12 in 6.2 mi East 12.7 mph - N/A   Mostly Cloudy
9:00 AM 76 °F - 67 °F 66% 30.16 in 16 mi South 10.4 mph - - Rain Light Rain Showers
9:00 AM 75.2 °F - 66.2 °F 73% 30.15 in 6.2 mi South 10.4 mph - N/A Rain Light Rain Showers
9:30 AM 77.0 °F - 66.2 °F 69% 30.15 in 6.2 mi ESE 12.7 mph - N/A   Mostly Cloudy
10:00 AM 79 °F - 67 °F 57% 30.15 in - ESE 10.4 mph - -  
10:00 AM 78.8 °F - 66.2 °F 65% 30.15 in 6.2 mi ESE 10.4 mph - N/A   Mostly Cloudy
10:30 AM 78.8 °F - 64.4 °F 61% 30.15 in 6.2 mi SE 9.2 mph - N/A   Mostly Cloudy
11:00 AM 80.6 °F 82.7 °F 66.2 °F 61% 30.12 in 6.2 mi East 13.8 mph - N/A   Mostly Cloudy
11:30 AM 80.6 °F 82.3 °F 64.4 °F 58% 30.12 in 6.2 mi ESE 12.7 mph - N/A   Mostly Cloudy
12:00 PM 81 °F - 63 °F 45% 30.14 in 19 mi SE 10.4 mph - -   Mostly Cloudy
12:00 PM 80.6 °F 81.8 °F 62.6 °F 54% 30.12 in 6.2 mi SE 10.4 mph - N/A   Mostly Cloudy
12:33 PM 78.8 °F - 66.2 °F 65% 30.12 in 6.2 mi ESE 17.3 mph 29.9 mph N/A   Mostly Cloudy
1:00 PM 73 °F - 70 °F 89% 30.14 in - East 12.7 mph - -  
1:00 PM 73.4 °F - 69.8 °F 88% 30.12 in 6.2 mi East 12.7 mph - N/A Rain Light Rain Showers
1:30 PM 75.2 °F - 68.0 °F 78% 30.12 in 6.2 mi ESE 12.7 mph - N/A   Scattered Clouds
2:00 PM 77.0 °F - 66.2 °F 69% 30.12 in 6.2 mi ESE 15.0 mph - N/A Rain Light Rain Showers
2:30 PM 77.0 °F - 66.2 °F 69% 30.09 in 6.2 mi ESE 11.5 mph - N/A   Mostly Cloudy
3:00 PM 76 °F - 65 °F 60% 30.12 in 19 mi East 11.5 mph - -   Mostly Cloudy
3:00 PM 77.0 °F - 64.4 °F 65% 30.09 in 6.2 mi East 11.5 mph - N/A   Mostly Cloudy
3:30 PM 77.0 °F - 66.2 °F 69% 30.09 in 6.2 mi East 12.7 mph - N/A   Mostly Cloudy
4:00 PM 76 °F - 65 °F 61% 30.12 in - ESE 13.8 mph - -  
4:00 PM 77.0 °F - 64.4 °F 65% 30.09 in 6.2 mi ESE 13.8 mph - N/A   Mostly Cloudy
4:30 PM 77.0 °F - 64.4 °F 65% 30.12 in 6.2 mi SE 13.8 mph - N/A   Mostly Cloudy
5:00 PM 77.0 °F - 62.6 °F 61% 30.12 in 6.2 mi ESE 12.7 mph - N/A   Mostly Cloudy
5:30 PM 77.0 °F - 64.4 °F 65% 30.12 in 6.2 mi ESE 12.7 mph - N/A Rain Light Rain Showers
6:00 PM 76 °F - 64 °F 59% 30.15 in 19 mi SE 10.4 mph - - Rain Light Rain Showers
6:00 PM 75.2 °F - 64.4 °F 69% 30.12 in 6.2 mi SE 10.4 mph - N/A   Mostly Cloudy
6:30 PM 75.2 °F - 64.4 °F 69% 30.15 in 6.2 mi SE 13.8 mph - N/A   Mostly Cloudy
7:00 PM 74 °F - 65 °F 67% 30.16 in - ESE 10.4 mph - -  
7:00 PM 75.2 °F - 66.2 °F 73% 30.15 in 6.2 mi ESE 10.4 mph - N/A   Scattered Clouds
7:30 PM 75.2 °F - 64.4 °F 69% 30.15 in 6.2 mi SE 9.2 mph - N/A   Partly Cloudy
8:00 PM 75.2 °F - 64.4 °F 69% 30.18 in 6.2 mi ESE 10.4 mph - N/A   Partly Cloudy
8:30 PM 71.6 °F - 66.2 °F 83% 30.18 in 6.2 mi ESE 10.4 mph - N/A   Mostly Cloudy
9:00 PM 71 °F - 66 °F 80% 30.20 in 19 mi SSE 6.9 mph - - Rain Light Rain Showers
9:00 PM 69.8 °F - 66.2 °F 88% 30.18 in 6.2 mi SSE 6.9 mph - N/A Rain Light Rain Showers
9:30 PM 69.8 °F - 68.0 °F 94% 30.18 in 6.2 mi South 5.8 mph - N/A Rain Light Rain Showers
10:00 PM 71 °F - 67 °F 82% 30.19 in - South 8.1 mph - -  
10:00 PM 69.8 °F - 66.2 °F 88% 30.18 in 6.2 mi South 8.1 mph - N/A   Mostly Cloudy
10:30 PM 69.8 °F - 66.2 °F 88% 30.18 in 6.2 mi South 6.9 mph - N/A   Partly Cloudy
11:00 PM 69.8 °F - 64.4 °F 83% 30.18 in 6.2 mi South 8.1 mph - N/A   Partly Cloudy
11:30 PM 69.8 °F - 64.4 °F 83% 30.18 in 6.2 mi South 6.9 mph - N/A   Mostly Cloudy